Location: Unspecified
(0.0000°N, 0.0000°E)
Time: 23:46:43
(UTC+02:00)

GP-B - Visible Passes

Search period start: 25 April 2015 00:00
Search period end: 05 May 2015 00:00
Orbit: 633 x 638 km, 89.9° (Epoch: 25 April)

Date Brightness Start Highest point End Pass type
(mag) Time Alt. Az. Time Alt. Az. Time Alt. Az.
25 Apr 6.1 21:39:07 10° SW 21:41:50 15° W 21:44:18 10° WNW visible
26 Apr 3.3 20:22:34 10° SSE 20:26:52 49° E 20:31:09 10° NNE visible
27 Apr 3.5 20:44:39 10° S 20:49:04 67° W 20:53:27 10° NNW visible
28 Apr 5.3 21:07:29 10° SSW 21:11:18 27° W 21:15:01 10° NW visible
29 Apr 6.3 21:31:52 10° WSW 21:33:37 12° W 21:35:02 10° WNW visible
30 Apr 3.1 20:14:12 10° SSE 20:18:36 65° E 20:22:59 10° N visible
01 May 4.1 20:36:29 10° S 20:40:48 50° W 20:45:05 10° NNW visible
02 May 5.8 20:59:35 10° SW 21:03:03 21° W 21:06:21 10° NW visible
